Weather in Novomar'evskaya

Russia / Stavropol Krai     45°08′11″N   41°48′30″E
temp.,
°C
wind,
m/s
gust,
m/s
humid.,
%
clouds,
%
prec.,
mm/h
press.,
hPa
HPBL,
m
16 may, mon
mon1600:00+12w49925 0.1 1015256
03:00+9wsw39950 0.1 1015203
06:00+10wsw38940 0.0 1016234
09:00+15w69695 0.0 1016911
12:00+18w9115465 0.0 10152079
15:00+17wnw9136493 0.6 10161656
18:00+15wnw610652 0.2 10161068
21:00+10w34765 0.2 101856
17 may, tue
tue1700:00+9sw22852 0.0 101827
03:00+8ssw34935 0.0 101867
06:00+9ssw388895 0.0 1018209
09:00+14wsw6107096 0.2 1017813
12:00+16w7106699 0.9 10161359
15:00+13w61185100 2.3 1015653
18:00+13w61191100 2.1 1015698
21:00+11wsw4109133 3.1 1016244
18 may, wed
wed1800:00+10wsw312925 0.1 1015278
03:00+8ssw339191 0.1 101449
06:00+10s3688100 0.0 1014151
09:00+13wsw2676100 0.0 1013442
12:00+16nne1264100 0.1 1011644
15:00+13nnw5792100 1.3 1011445
18:00+11n3698100 5.3 1012348
21:00+10nne2698100 12.4 1012420
19 may, thu
thu1900:00+10ese2497100 6.4 1012198
03:00+10nne1198100 14.1 101338
06:00+8n5897100 6.2 1017408
09:00+9w5793100 8.7 1020528
12:00+11wsw6783100 0.9 1021859
15:00+13w697838 2.4 10211313
18:00+12wnw58835 1.3 1021721
21:00+8wsw39925 1.5 1023174
20 may, fri
fri2000:00+7sw4109585 0.0 1023218
03:00+6sw51298100 0.3 1023297
06:00+8sw51394100 0.1 1023445
09:00+10wsw71189100 0.3 1022758
12:00+10wsw71393100 1.9 1022973
15:00+10wsw71294100 2.8 1021747
18:00+11wsw61293100 0.3 1021693
21:00+10wsw61393100 1.3 1021502